Regional Weather Roundup
Issued by NWS

Home | Current Version | Previous Version | Graphics & Text | Print | Product List | Glossary On
Versions: 1 2 3 4 5 6 7 8 9 10 11 12 13 14 15 16 17 18 19 20 21 22 23 24 25 26 27 28 29 30 31 32 33 34 35 36 37 38 39 40 41 42 43 44 45 46 47 48 49 50
000
ASUS45 KTFX 181204
RWRMT
MONTANA HOURLY WEATHER ROUNDUP
NATIONAL WEATHER SERVICE GREAT FALLS MT
504 AM MST THU DEC 18 2014

NOTE: "FAIR" INDICATES FEW OR NO CLOUDS BELOW 12000 FEET WITH NO
SIGNIFICANT WEATHER AND/OR OBSTRUCTIONS TO VISIBILITY.

* THESE STATIONS ARE NOT UNDER NWS QUALITY CONTROL. THEY DO NOT
   REPORT WEATHER SUCH AS PRECIPITATION OR FOG.

MTZ001>007-043-181300-
WEST OF THE DIVIDE
CITY           SKY/WX    TMP DP  RH WIND       PRES   REMARKS
KALISPELL      FOG       28  28 100 CALM      29.96S
MISSOULA       CLOUDY    28  27  96 CALM      30.01R
BUTTE          CLOUDY     9   7  91 CALM      29.98S
MULLAN PASS    LGT SNOW  28  27  96 SW6       29.89F VSB 3/4  WCI  21
* ANACONDA     PTCLDY    27  18  69 SE11G18    N/A   WCI  17
* ESSEX        N/A       28  27  96 N/A        N/A
* LINCOLN      N/A       17  15  92 NE1        N/A
* LOOKOUT PASS N/A       33  31  92 E1G7       N/A
* POLSON       N/A       29  28  96 N/A        N/A
* RONAN APT    CLOUDY    30  28  92 N/A        N/A
* SEELEY LAKE  N/A       22  20  92 NW1        N/A
* THOMP F APT  MOCLDY    22  17  81 NE1G9      N/A
* YAAK HILL    N/A       32  30  92 N/A        N/A
$$

MTZ008-052>055-181300-
SOUTHWEST MONTANA
CITY           SKY/WX    TMP DP  RH WIND       PRES   REMARKS
BOZEMAN        CLOUDY    12   9  88 CALM      30.02R
DILLON         CLOUDY    18  10  71 SE8       30.00S WCI   8
* W YELLOWSTON PTCLDY    11   9  92 N/A        N/A
* THREE FORKS  PTCLDY    16  -8  33 N/A        N/A
* BOULDER HILL N/A       23  14  68 SW11       N/A   WCI  12
* MONIDA PASS  N/A       20  19  96 SE8G13     N/A   WCI  10
* RAYNOLDS PAS N/A       12  -9  38 SE5        N/A   WCI   4
* WHITEHALL    N/A       21  17  84 NW11G16    N/A   WCI   9
* WISE RIVER   N/A        8   4  84 N/A        N/A
$$

MTZ009>010-012-014-046-048-049-054-181300-
EAST SLOPES AND CENTRAL MONTANA
CITY           SKY/WX    TMP DP  RH WIND       PRES   REMARKS
CUT BANK       PTCLDY    30  28  92 W9G16     29.85S WCI  22
GREAT FALLS    CLOUDY    34  25  70 S13       29.89S WCI  25
HELENA         CLOUDY    23  21  92 CALM      29.99S
* DEARBORN     N/A       35  24  64 SW8        N/A   WCI  28
* EAST GLACIER N/A       33  28  82 W9         N/A   WCI  25
* MONARCH      N/A       28  17  63 S8         N/A   WCI  20
* PENDROY      N/A       33  25  72 W5         N/A   WCI  28
* ROGERS PASS  N/A       28  20  72 SE8G15     N/A   WCI  20
* SWEET GRASS  N/A       17  17 100 SW4        N/A
$$

MTZ011-013-016-021-035-040-045-047-050-051-181300-
NORTH CENTRAL MONTANA
CITY           SKY/WX    TMP DP  RH WIND       PRES   REMARKS
HAVRE          FOG       19  18  96 SW8       29.92S VSB 1/2  WCI   9
LEWISTOWN      PTCLDY    18  16  92 SE6       29.90S WCI  10
* N BAR RANCH  CLEAR     21  16  81 NW5       29.90S WCI  14
* CHESTER      N/A       20  18  92 SW3        N/A
* DENTON       N/A       22  16  78 N/A        N/A
* GEYSER       N/A       37  22  55 SW15       N/A   WCI  28
* JUDITH GAP   N/A       22  18  85 SE8        N/A   WCI  13
* LOMA         N/A       19  18  96 N/A        N/A
$$

MTZ017>020-022>027-061-062-181300-
NORTHEAST MONTANA
CITY           SKY/WX    TMP DP  RH WIND       PRES   REMARKS
GLASGOW        CLOUDY    25  19  78 E7        29.94S WCI  17
GLENDIVE       CLOUDY    23  21  92 CALM      29.97S
JORDAN         CLEAR     25  21  85 SE3       29.92F
SIDNEY         CLOUDY    23  19  85 CALM      30.00F
WOLF POINT     CLOUDY    25  19  78 E6        29.98F WCI  18
* BEAVER HILL  N/A       24  21  88 S6         N/A   WCI  17
* CIRCLE       N/A       25  23  92 N/A        N/A
* FT PECK      N/A       27  25  92 E9         N/A   WCI  18
* LINDSAY DVD  N/A       21  20  96 S1         N/A
* NAVAJO       N/A       19  17  92 SW6        N/A   WCI  11
* SACO         N/A       25  23  92 E2         N/A
$$

MTZ028>042-056>058-181300-
SOUTHCENTRAL AND SOUTHEAST MONTANA
CITY           SKY/WX    TMP DP  RH WIND       PRES   REMARKS
BAKER          FOG       27  25  92 CALM      29.95R
BILLINGS       PTCLDY    23  18  81 SW16      29.94S WCI  10
LIVINGSTON     PTCLDY    34  18  52 W18G28    29.94F WCI  23
MILES CITY     CLOUDY    25  21  85 CALM      29.95S
* LAUREL APT   PTCLDY    19  12  74 N/A        N/A
* ROUNDUP APT  PTCLDY    25  16  69 S8         N/A   WCI  16
* ALZADA       N/A       15  13  92 E1         N/A
* HYSHAM       N/A       26  18  72 W7         N/A   WCI  18
* LAME DEER    N/A       27  21  78 N/A        N/A
* REED POINT   N/A       14  13  96 N/A        N/A
* ROSCOE HILL  N/A       30   4  33 SW6G11     N/A   WCI  24
$$

REGIONAL REPORTS...DAKOTAS
CITY           SKY/WX    TMP DP  RH WIND       PRES   REMARKS
WILLISTON      CLOUDY    21  18  88 SE7       30.00F WCI  12
DICKINSON      CLOUDY    21  18  88 S10       29.95F WCI  10
BEACH          CLOUDY    23  23 100 S5        29.95S WCI  16
CROSBY         CLOUDY    19  18  96 S9        30.01S WCI   8
WATFORD CITY   CLOUDY    19  18  96 SE6       29.99S WCI  11
BISMARCK       CLOUDY    16  16 100 S9        30.10F WCI   5
GRAND FORKS    PTCLDY     5   1  83 SE5       30.26F WCI  -5
FARGO          PTCLDY     9   3  76 CALM      30.26F
BUFFALO SD     PTCLDY    25  21  85 S9        29.88F WCI  16
RAPID CITY     FOG       21  19  92 S7        29.99S WCI  12
$$

REGIONAL REPORTS...WYOMING/IDAHO/WASHINGTON
CITY           SKY/WX    TMP DP  RH WIND       PRES   REMARKS
GILLETTE       PTCLDY    12   9  88 S5        29.95S WCI   4
SHERIDAN       PTCLDY    14   9  80 CALM      29.94S
CODY           PTCLDY    21  12  68 SW5       29.94S WCI  14
YELLOWSTONE LA MOCLDY    19  16  88 CALM      30.02R
SALMON         CLOUDY    19  14  81 CALM      30.09R
MULLAN PASS    LGT SNOW  28  27  96 SW6       29.89S VSB 3/4  WCI  21
SAND POINT     LGT RAIN  32  32 100 CALM      29.98F VSB 1 3/4
SPOKANE        CLOUDY    34  34 100 S5        29.96F WCI  29

$$



USA.gov is the U.S. government's official web portal to all federal, state and local government web resources and services.